When you browse on this site, cookies collect data to enhance your experience and personalize the content and advertising you see.
Visit our Privacy Policy to learn more. By continuing to use the site, you agree to this use of cookies and data.

Hourly Weather Seleznevo

Today, 13 July, Monday

Time Temperature Precipitation Wind Pressure Humidity
00:00 +19°C° 0 mm 1 mps 736 mmHg 81%
01:00 +18°C° 0 mm 1 mps 736 mmHg 83%
02:00 +18°C° 0 mm 1 mps 736 mmHg 84%
03:00 +18°C° 0 mm 1 mps 736 mmHg 85%
04:00 +18°C° 0 mm 1 mps 735 mmHg 86%
05:00 +18°C° 0 mm 1 mps 735 mmHg 87%
06:00 +19°C° 0 mm 2 mps 735 mmHg 84%
07:00 +20°C° 0 mm 2 mps 735 mmHg 82%
08:00 +21°C° 0 mm 3 mps 735 mmHg 80%
09:00 +22°C° 0 mm 3 mps 735 mmHg 76%
10:00 +24°C° 0 mm 3 mps 735 mmHg 72%
11:00 +25°C° 0 mm 2 mps 735 mmHg 69%
12:00 +25°C° 0.8 mm 3 mps 734 mmHg 71%
13:00 +25°C° 0.8 mm 3 mps 734 mmHg 74%
14:00 +24°C° 0.8 mm 3 mps 734 mmHg 77%
15:00 +23°C° 1 mm 2 mps 734 mmHg 81%
16:00 +21°C° 1 mm 2 mps 733 mmHg 86%
17:00 +21°C° 1 mm 1 mps 733 mmHg 90%
18:00 +19°C° 0.3 mm 2 mps 733 mmHg 92%
19:00 +19°C° 0.3 mm 2 mps 733 mmHg 93%
20:00 +18°C° 0.3 mm 3 mps 733 mmHg 94%
21:00 +18°C° 0.1 mm 3 mps 733 mmHg 95%
22:00 +17°C° 0.1 mm 3 mps 733 mmHg 96%
23:00 +17°C° 0.1 mm 3 mps 733 mmHg 96%

Tomorrow, 14 July, Tuesday

Time Temperature Precipitation Wind Pressure Humidity
00:00 +17°C° 0.4 mm 3 mps 733 mmHg 97%
01:00 +17°C° 0.4 mm 3 mps 733 mmHg 97%
02:00 +16°C° 0.4 mm 3 mps 733 mmHg 97%
03:00 +15°C° 0.6 mm 4 mps 732 mmHg 97%
04:00 +15°C° 0.6 mm 4 mps 732 mmHg 97%
05:00 +15°C° 0.6 mm 5 mps 732 mmHg 97%
06:00 +16°C° 1.5 mm 5 mps 732 mmHg 97%
07:00 +16°C° 1.5 mm 5 mps 732 mmHg 97%
08:00 +16°C° 1.5 mm 5 mps 732 mmHg 97%
09:00 +16°C° 1.4 mm 5 mps 731 mmHg 97%
10:00 +16°C° 1.4 mm 5 mps 731 mmHg 97%
11:00 +17°C° 1.4 mm 5 mps 731 mmHg 96%
12:00 +16°C° 3.6 mm 6 mps 730 mmHg 97%
13:00 +16°C° 3.6 mm 6 mps 730 mmHg 97%
14:00 +16°C° 3.6 mm 6 mps 729 mmHg 97%
15:00 +16°C° 7.3 mm 6 mps 729 mmHg 97%
16:00 +16°C° 7.3 mm 6 mps 728 mmHg 96%
17:00 +16°C° 7.3 mm 6 mps 728 mmHg 96%
18:00 +16°C° 0.3 mm 5 mps 728 mmHg 97%
19:00 +15°C° 0.3 mm 4 mps 727 mmHg 97%
20:00 +16°C° 0.3 mm 3 mps 727 mmHg 97%
21:00 +16°C° 0 mm 3 mps 727 mmHg 97%
22:00 +16°C° 0 mm 3 mps 727 mmHg 98%
23:00 +14°C° 0 mm 3 mps 727 mmHg 98%

Day after tomorrow, 15 July, Wednesday

Time Temperature Precipitation Wind Pressure Humidity
00:00 +14°C° 0 mm 3 mps 727 mmHg 98%
01:00 +14°C° 0 mm 3 mps 726 mmHg 98%
02:00 +14°C° 0 mm 3 mps 726 mmHg 98%
03:00 +14°C° 0 mm 3 mps 726 mmHg 97%
04:00 +14°C° 0 mm 3 mps 726 mmHg 97%
05:00 +16°C° 0 mm 3 mps 726 mmHg 96%
06:00 +16°C° 0.1 mm 3 mps 726 mmHg 95%
07:00 +14°C° 0.1 mm 3 mps 726 mmHg 94%
08:00 +14°C° 0.1 mm 3 mps 726 mmHg 93%
09:00 +14°C° 0.5 mm 4 mps 727 mmHg 93%
10:00 +14°C° 0.5 mm 4 mps 727 mmHg 93%
11:00 +14°C° 0.5 mm 5 mps 727 mmHg 92%
12:00 +13°C° 0.5 mm 4 mps 727 mmHg 92%
13:00 +13°C° 0.5 mm 4 mps 728 mmHg 91%
14:00 +13°C° 0.5 mm 4 mps 728 mmHg 91%
15:00 +13°C° 0.4 mm 4 mps 728 mmHg 91%
16:00 +13°C° 0.4 mm 3 mps 728 mmHg 91%
17:00 +14°C° 0.4 mm 2 mps 729 mmHg 91%
18:00 +13°C° 0.2 mm 3 mps 729 mmHg 92%
19:00 +13°C° 0.2 mm 4 mps 729 mmHg 94%
20:00 +14°C° 0.2 mm 5 mps 730 mmHg 95%
21:00 +14°C° 0.1 mm 6 mps 730 mmHg 95%
22:00 +14°C° 0.1 mm 6 mps 730 mmHg 95%
23:00 +14°C° 0.1 mm 7 mps 730 mmHg 95%

16 July, Thursday

Time Temperature Precipitation Wind Pressure Humidity
00:00 +12°C° 0.1 mm 7 mps 731 mmHg 95%
01:00 +13°C° 0.1 mm 6 mps 731 mmHg 95%
02:00 +13°C° 0.1 mm 6 mps 731 mmHg 95%
03:00 +11°C° 0 mm 6 mps 731 mmHg 95%
04:00 +11°C° 0 mm 6 mps 732 mmHg 94%
05:00 +11°C° 0 mm 6 mps 732 mmHg 94%
06:00 +11°C° 0 mm 6 mps 732 mmHg 93%
07:00 +11°C° 0 mm 6 mps 732 mmHg 93%
08:00 +13°C° 0 mm 6 mps 733 mmHg 92%
09:00 +13°C° 0 mm 6 mps 733 mmHg 90%
10:00 +14°C° 0 mm 6 mps 733 mmHg 88%
11:00 +14°C° 0 mm 6 mps 733 mmHg 86%
12:00 +15°C° 0 mm 5 mps 734 mmHg 85%
13:00 +15°C° 0 mm 5 mps 734 mmHg 84%
14:00 +16°C° 0 mm 5 mps 734 mmHg 83%
15:00 +16°C° 0 mm 5 mps 734 mmHg 84%
16:00 +15°C° 0 mm 4 mps 734 mmHg 84%
17:00 +15°C° 0 mm 4 mps 734 mmHg 85%
18:00 +15°C° 0 mm 4 mps 734 mmHg 86%
19:00 +14°C° 0 mm 4 mps 735 mmHg 86%
20:00 +14°C° 0 mm 4 mps 735 mmHg 87%
21:00 +14°C° 0 mm 4 mps 735 mmHg 86%
22:00 +14°C° 0 mm 4 mps 735 mmHg 85%
23:00 +13°C° 0 mm 4 mps 735 mmHg 84%

17 July, Friday

Time Temperature Precipitation Wind Pressure Humidity
00:00 +13°C° 0 mm 4 mps 735 mmHg 84%
01:00 +13°C° 0 mm 4 mps 735 mmHg 83%
02:00 +14°C° 0 mm 4 mps 735 mmHg 83%
03:00 +13°C° 0 mm 4 mps 735 mmHg 85%
04:00 +13°C° 0 mm 4 mps 735 mmHg 87%
05:00 +13°C° 0 mm 3 mps 735 mmHg 90%
06:00 +14°C° 0 mm 4 mps 735 mmHg 89%
07:00 +14°C° 0 mm 4 mps 735 mmHg 87%
08:00 +15°C° 0 mm 4 mps 735 mmHg 86%
09:00 +17°C° 0 mm 4 mps 735 mmHg 83%
10:00 +18°C° 0 mm 4 mps 735 mmHg 81%
11:00 +19°C° 0 mm 4 mps 736 mmHg 78%
12:00 +19°C° 0.2 mm 4 mps 736 mmHg 77%
13:00 +19°C° 0.2 mm 4 mps 736 mmHg 77%
14:00 +20°C° 0.2 mm 4 mps 736 mmHg 76%
15:00 +20°C° 0.2 mm 4 mps 736 mmHg 78%
16:00 +19°C° 0.2 mm 4 mps 736 mmHg 80%
17:00 +19°C° 0.2 mm 4 mps 736 mmHg 82%
18:00 +18°C° 0.1 mm 3 mps 736 mmHg 86%
19:00 +17°C° 0.1 mm 3 mps 736 mmHg 90%
20:00 +16°C° 0.1 mm 2 mps 736 mmHg 94%
21:00 +15°C° 0 mm 2 mps 736 mmHg 94%
22:00 +14°C° 0 mm 2 mps 736 mmHg 95%
23:00 +14°C° 0 mm 2 mps 737 mmHg 96%

18 July, Saturday

Time Temperature Precipitation Wind Pressure Humidity
00:00 +13°C° 0 mm 2 mps 737 mmHg 97%
01:00 +13°C° 0 mm 2 mps 737 mmHg 97%
02:00 +13°C° 0 mm 2 mps 737 mmHg 97%
03:00 +13°C° 0 mm 2 mps 737 mmHg 97%
04:00 +13°C° 0 mm 2 mps 737 mmHg 97%
05:00 +12°C° 0 mm 3 mps 737 mmHg 96%
06:00 +13°C° 0 mm 3 mps 737 mmHg 92%
07:00 +16°C° 0 mm 3 mps 738 mmHg 88%
08:00 +17°C° 0 mm 3 mps 738 mmHg 84%
09:00 +17°C° 0.1 mm 3 mps 738 mmHg 82%
10:00 +18°C° 0.1 mm 3 mps 738 mmHg 80%
11:00 +18°C° 0.1 mm 3 mps 738 mmHg 78%
12:00 +19°C° 0.1 mm 3 mps 738 mmHg 77%
13:00 +19°C° 0.1 mm 3 mps 738 mmHg 76%
14:00 +20°C° 0.1 mm 3 mps 738 mmHg 75%
15:00 +19°C° 0.1 mm 3 mps 738 mmHg 77%
16:00 +19°C° 0.1 mm 4 mps 738 mmHg 79%
17:00 +18°C° 0.1 mm 4 mps 738 mmHg 80%
18:00 +17°C° 0 mm 3 mps 738 mmHg 85%
19:00 +14°C° 0 mm 3 mps 738 mmHg 89%
20:00 +14°C° 0 mm 2 mps 738 mmHg 93%
21:00 +13°C° 0 mm 2 mps 738 mmHg 93%
22:00 +13°C° 0 mm 2 mps 738 mmHg 93%
23:00 +12°C° 0 mm 1 mps 738 mmHg 93%
Show more